SM6PGP-2 Weather Reports


Display with metric or nautical units.
time (UTC)temp
F
wind
direction
speed
MPH
gust
MPH
rain 1hr
in
rain 24hr
in
rain mn
in
humidity
%
barometer
mb
20260508204720 40 67 0.0 0.0 0.00 0.00 0.00 59 1022.2
20260508204215 40 135 0.0 0.0 0.00 0.00 0.00 57 1022.1
20260508203710 40 135 0.0 0.0 0.00 0.00 0.00 57 1022.2
20260508203205 40 135 0.0 0.0 0.00 0.00 0.00 56 1022.1
20260508202659 41 135 0.0 0.0 0.00 0.00 0.00 55 1022.1
20260508202155 41 135 0.0 0.0 0.00 0.00 0.00 55 1022.0
20260508201649 42 67 0.0 1.0 0.00 0.00 0.00 54 1021.9
20260508201144 42 67 0.0 1.0 0.00 0.00 0.00 54 1021.9
20260508200639 42 67 1.0 1.0 0.00 0.00 0.00 53 1021.9
20260508200133 42 90 0.0 0.0 0.00 0.00 0.00 51 1021.8
20260508195628 43 90 0.0 0.0 0.00 0.00 0.00 51 1021.8
20260508195123 43 90 0.0 0.0 0.00 0.00 0.00 49 1021.8
20260508194618 44 135 0.0 0.0 0.00 0.00 0.00 49 1021.8
20260508194113 44 135 0.0 1.0 0.00 0.00 0.00 48 1021.8
20260508193607 45 135 1.0 1.0 0.00 0.00 0.00 48 1021.8
20260508193102 45 135 1.0 1.0 0.00 0.00 0.00 47 1021.7
20260508192557 46 135 0.0 2.0 0.00 0.00 0.00 47 1021.8
20260508192052 46 135 2.0 3.0 0.00 0.00 0.00 46 1021.7
20260508191547 47 180 1.0 2.0 0.00 0.00 0.00 45 1021.8
20260508191041 47 135 0.0 1.0 0.00 0.00 0.01 44 1021.6
20260508190536 47 135 1.0 1.0 0.00 0.00 0.01 44 1021.6
20260508190031 48 135 0.0 1.0 0.00 0.00 0.01 43 1021.6
20260508185526 48 135 1.0 2.0 0.00 0.00 0.01 42 1021.5
20260508185021 49 112 0.0 0.0 0.00 0.00 0.01 42 1021.5
20260508184515 49 112 0.0 0.0 0.00 0.00 0.01 41 1021.6
20260508184010 49 112 0.0 0.0 0.00 0.00 0.01 40 1021.5
20260508183505 50 112 0.0 1.0 0.00 0.00 0.01 39 1021.5
20260508183000 50 180 0.0 1.0 0.00 0.00 0.01 39 1021.5
20260508182455 51 180 1.0 4.0 0.00 0.00 0.01 38 1021.4
20260508181949 51 225 2.0 3.0 0.00 0.00 0.01 38 1021.4
20260508181444 51 189 4.0 5.0 0.00 0.00 0.01 37 1021.4
20260508180939 52 225 3.0 5.0 0.00 0.00 0.01 37 1021.4
20260508180434 52 270 5.0 5.0 0.00 0.00 0.01 35 1021.4
20260508175929 53 225 3.0 3.0 0.00 0.00 0.01 36 1021.4
20260508175423 53 324 1.0 3.0 0.00 0.00 0.01 36 1021.4
20260508174918 53 265 2.0 4.0 0.00 0.00 0.01 36 1021.2
20260508174413 54 337 1.0 4.0 0.00 0.00 0.01 37 1021.2
20260508173908 54 252 0.0 2.0 0.00 0.00 0.01 38 1021.4
20260508173403 54 315 0.0 5.0 0.00 0.00 0.01 38 1021.2
20260508172857 54 229 1.0 4.0 0.00 0.00 0.01 38 1021.3
20260508172352 54 270 5.0 5.0 0.00 0.00 0.01 38 1021.2
20260508171847 55 270 3.0 5.0 0.00 0.00 0.01 34 1021.3
20260508171342 55 247 6.0 10.0 0.00 0.00 0.01 31 1021.2
20260508170837 55 243 8.0 8.0 0.00 0.00 0.01 32 1021.2
20260508170331 56 229 5.0 10.0 0.00 0.00 0.01 32 1021.1
20260508165826 56 270 5.0 9.0 0.00 0.00 0.01 31 1021.1
20260508165321 56 270 6.0 10.0 0.00 0.00 0.01 30 1021.1
20260508164816 57 225 5.0 9.0 0.00 0.00 0.01 30 1021.0
20260508164311 57 256 5.0 10.0 0.00 0.00 0.01 29 1021.0
20260508163805 58 270 8.0 10.0 0.00 0.00 0.01 30 1021.0
20260508163300 58 270 7.0 10.0 0.00 0.00 0.01 29 1021.1
20260508162755 59 274 6.0 7.0 0.00 0.00 0.01 30 1021.2
20260508162250 59 265 8.0 8.0 0.00 0.00 0.01 30 1021.2
20260508161745 60 256 3.0 12.0 0.00 0.00 0.01 30 1021.1
20260508161239 60 9 1.0 5.0 0.00 0.00 0.01 30 1021.2
20260508160734 60 297 6.0 10.0 0.00 0.00 0.01 29 1021.2
20260508160229 60 270 5.0 7.0 0.00 0.00 0.01 29 1021.2
20260508155724 59 324 3.0 7.0 0.00 0.00 0.01 29 1021.1
20260508155219 59 270 12.0 15.0 0.00 0.00 0.01 26 1021.1
20260508154714 59 261 3.0 12.0 0.00 0.00 0.01 26 1021.0
20260508154208 59 261 7.0 8.0 0.00 0.00 0.01 25 1021.0
20260508153703 59 225 9.0 12.0 0.00 0.00 0.01 24 1021.0
20260508153158 59 306 6.0 14.0 0.00 0.00 0.01 24 1021.0
20260508152653 58 270 5.0 15.0 0.00 0.00 0.01 25 1020.9
20260508152148 58 274 9.0 14.0 0.00 0.00 0.01 24 1021.0
20260508151642 59 252 13.0 15.0 0.00 0.00 0.01 24 1021.0
20260508151137 59 270 12.0 14.0 0.00 0.00 0.01 24 1021.0
20260508150632 59 270 12.0 13.0 0.00 0.00 0.01 23 1021.1
20260508150127 59 297 9.0 12.0 0.00 0.00 0.01 24 1021.1
20260508145622 59 261 6.0 11.0 0.00 0.00 0.01 23 1021.1
20260508145116 59 229 10.0 13.0 0.00 0.00 0.01 25 1021.1
20260508144611 59 225 10.0 14.0 0.00 0.00 0.01 24 1021.2
20260508144106 60 225 11.0 14.0 0.00 0.00 0.01 25 1021.2
20260508143601 60 252 10.0 14.0 0.00 0.00 0.01 27 1021.3
20260508143056 60 270 20.0 20.0 0.00 0.00 0.01 27 1021.3
20260508142550 60 270 8.0 14.0 0.00 0.00 0.01 27 1021.3
20260508142045 59 270 8.0 13.0 0.00 0.00 0.01 29 1021.2
20260508141540 60 243 14.0 15.0 0.00 0.00 0.01 30 1021.3
20260508141035 60 225 12.0 14.0 0.00 0.00 0.01 31 1021.2
20260508140530 60 225 9.0 16.0 0.00 0.00 0.01 30 1021.2
20260508140024 61 229 16.0 16.0 0.00 0.00 0.01 29 1021.2
20260508135519 61 247 10.0 15.0 0.00 0.00 0.01 26 1021.2
20260508135015 61 270 13.0 14.0 0.00 0.00 0.01 25 1021.2
20260508134509 61 225 13.0 13.0 0.00 0.00 0.01 26 1021.2
20260508134004 61 225 11.0 12.0 0.00 0.00 0.01 26 1021.3
20260508133458 60 202 11.0 14.0 0.00 0.00 0.01 25 1021.3
20260508132953 61 171 9.0 13.0 0.00 0.00 0.01 25 1021.4
20260508132449 61 198 8.0 9.0 0.00 0.00 0.01 26 1021.4
20260508131943 60 225 8.0 13.0 0.00 0.00 0.01 27 1021.4
20260508131438 60 225 9.0 13.0 0.00 0.00 0.01 28 1021.4
20260508130932 60 180 13.0 13.0 0.00 0.00 0.01 29 1021.5
20260508130427 60 216 11.0 13.0 0.00 0.00 0.01 29 1021.5
20260508125923 59 229 12.0 15.0 0.00 0.00 0.01 30 1021.5
20260508125417 60 225 11.0 14.0 0.00 0.00 0.01 30 1021.7
20260508124912 60 202 11.0 13.0 0.00 0.00 0.01 30 1021.6
20260508124407 60 180 10.0 15.0 0.00 0.00 0.01 30 1021.6
20260508123901 59 180 11.0 16.0 0.00 0.00 0.01 29 1021.6
20260508123357 59 180 13.0 16.0 0.00 0.00 0.01 31 1021.6
20260508122851 58 184 13.0 16.0 0.00 0.00 0.01 34 1021.6
20260508122346 58 180 12.0 15.0 0.00 0.00 0.01 36 1021.6
20260508121841 57 189 12.0 17.0 0.00 0.00 0.01 37 1021.7
20260508121335 57 175 13.0 18.0 0.00 0.00 0.01 35 1021.6
20260508120831 57 180 15.0 17.0 0.00 0.00 0.01 32 1021.6
20260508120325 58 180 17.0 19.0 0.00 0.00 0.01 29 1021.6
20260508115820 58 180 14.0 17.0 0.00 0.00 0.01 27 1021.6
20260508115315 58 171 14.0 19.0 0.00 0.00 0.01 26 1021.7
20260508114809 58 180 15.0 20.0 0.00 0.00 0.01 25 1021.6
20260508114305 58 180 12.0 19.0 0.00 0.00 0.01 24 1021.6
20260508113759 58 180 18.0 19.0 0.00 0.00 0.01 23 1021.5
20260508113254 58 180 17.0 18.0 0.00 0.00 0.01 25 1021.5
20260508112749 58 166 10.0 17.0 0.00 0.00 0.01 24 1021.5
20260508112243 58 175 15.0 17.0 0.00 0.00 0.01 22 1021.4
20260508111739 59 180 14.0 19.0 0.00 0.00 0.01 21 1021.6
20260508111233 59 189 14.0 17.0 0.00 0.00 0.01 22 1021.4
20260508110728 59 180 15.0 18.0 0.00 0.00 0.01 20 1021.3
20260508110223 59 180 16.0 20.0 0.00 0.00 0.01 19 1021.4
20260508105717 59 175 14.0 19.0 0.00 0.00 0.01 23 1021.5
20260508105213 59 175 12.0 17.0 0.00 0.00 0.01 23 1021.5
20260508104707 58 180 16.0 16.0 0.00 0.00 0.01 24 1021.4
20260508104202 58 180 17.0 21.0 0.00 0.00 0.01 22 1021.4
20260508103657 58 171 16.0 20.0 0.00 0.00 0.01 23 1021.5
20260508103151 59 180 17.0 20.0 0.00 0.00 0.01 24 1021.4
20260508102647 59 180 16.0 18.0 0.00 0.00 0.01 27 1021.4
20260508102141 60 166 11.0 16.0 0.00 0.00 0.01 27 1021.3
20260508101636 60 180 13.0 14.0 0.00 0.00 0.01 29 1021.3
20260508101131 60 198 11.0 12.0 0.00 0.00 0.01 28 1021.3
20260508100625 60 184 7.0 12.0 0.00 0.00 0.01 29 1021.3
20260508100121 60 180 11.0 14.0 0.00 0.00 0.01 29 1021.2
20260508095615 60 180 12.0 13.0 0.00 0.00 0.01 27 1021.3
20260508095110 60 180 9.0 13.0 0.00 0.00 0.01 27 1021.2
20260508094605 60 211 10.0 14.0 0.00 0.00 0.01 26 1021.1
20260508094059 61 180 13.0 14.0 0.00 0.00 0.01 26 1021.2
20260508093555 61 180 6.0 10.0 0.00 0.00 0.01 26 1021.2
20260508093049 60 90 8.0 11.0 0.00 0.00 0.01 24 1021.2
20260508092036 61 63 8.0 11.0 0.00 0.00 0.01 25 1021.1
20260508091530 61 121 7.0 11.0 0.00 0.00 0.01 25 1021.1
20260508091026 61 135 7.0 13.0 0.00 0.00 0.01 27 1021.1
20260508090520 60 135 6.0 10.0 0.00 0.00 0.01 27 1021.1
20260508090015 60 117 1.0 11.0 0.00 0.00 0.01 27 1021.2
20260508085510 60 148 10.0 10.0 0.00 0.00 0.01 28 1021.2
20260508085004 60 90 4.0 11.0 0.00 0.00 0.01 27 1021.2
20260508084500 59 126 9.0 9.0 0.00 0.00 0.01 29 1021.2
20260508083954 58 40 4.0 8.0 0.00 0.00 0.01 27 1021.1
20260508082941 57 81 7.0 11.0 0.00 0.00 0.01 28 1021.1
20260508082436 57 103 8.0 13.0 0.00 0.00 0.01 29 1021.0
20260508081931 57 63 6.0 15.0 0.00 0.00 0.01 30 1021.2
20260508081425 57 90 11.0 11.0 0.00 0.00 0.01 31 1021.1
20260508080920 57 67 1.0 6.0 0.00 0.00 0.01 31 1021.1
20260508080415 57 90 9.0 11.0 0.00 0.00 0.01 32 1021.1
20260508075910 56 117 4.0 16.0 0.00 0.00 0.01 34 1021.2
20260508075405 56 135 2.0 7.0 0.00 0.00 0.01 37 1021.1
20260508074859 55 72 2.0 9.0 0.00 0.00 0.01 36 1021.1
20260508074354 54 81 5.0 14.0 0.00 0.00 0.01 36 1021.0
20260508073849 53 58 8.0 9.0 0.00 0.00 0.01 38 1021.1
20260508073344 53 85 6.0 11.0 0.00 0.00 0.01 37 1021.0
20260508072839 52 94 6.0 11.0 0.00 0.00 0.01 38 1021.0
20260508072333 52 90 7.0 12.0 0.00 0.00 0.01 37 1020.9
20260508071828 52 90 9.0 9.0 0.00 0.00 0.01 39 1021.0
20260508071323 52 108 4.0 8.0 0.00 0.00 0.01 39 1020.9
20260508070818 51 135 8.0 11.0 0.00 0.00 0.01 39 1020.9
20260508070313 52 90 5.0 9.0 0.00 0.00 0.01 38 1020.8
20260508065807 52 90 11.0 11.0 0.00 0.00 0.01 39 1020.8
20260508065306 53 90 5.0 9.0 0.00 0.00 0.01 40 1020.8
20260508064757 53 85 5.0 10.0 0.00 0.00 0.01 41 1020.7
20260508064252 52 49 2.0 4.0 0.00 0.00 0.01 43 1020.6
20260508063747 51 117 4.0 5.0 0.00 0.00 0.01 43 1020.6
20260508063241 51 112 9.0 9.0 0.00 0.00 0.01 44 1020.5
20260508062736 51 90 5.0 10.0 0.00 0.00 0.01 43 1020.6
20260508062231 51 112 4.0 5.0 0.00 0.00 0.01 45 1020.5
20260508061726 51 135 2.0 7.0 0.00 0.00 0.01 45 1020.4
20260508061221 51 85 1.0 7.0 0.00 0.00 0.01 46 1020.4
20260508060715 51 0 1.0 3.0 0.00 0.00 0.01 47 1020.4
20260508060210 50 90 1.0 5.0 0.00 0.00 0.01 49 1020.4
20260508055705 50 90 0.0 2.0 0.00 0.00 0.01 51 1020.4
20260508055200 49 90 1.0 2.0 0.00 0.00 0.01 51 1020.4
20260508054655 48 9 0.0 2.0 0.00 0.00 0.01 51 1020.4
20260508054149 47 0 2.0 3.0 0.00 0.00 0.01 53 1020.3
20260508053644 46 0 3.0 3.0 0.00 0.00 0.01 55 1020.2
20260508053139 46 0 2.0 3.0 0.00 0.00 0.01 56 1020.2
20260508052634 45 0 2.0 3.0 0.00 0.00 0.01 59 1020.1
20260508052129 44 0 2.0 2.0 0.00 0.00 0.01 61 1020.1
20260508051623 43 45 1.0 2.0 0.00 0.00 0.01 63 1020.1
20260508051118 41 45 1.0 1.0 0.00 0.00 0.01 65 1020.1
20260508050613 40 45 1.0 3.0 0.00 0.00 0.01 67 1020.1
20260508050108 38 0 1.0 4.0 0.00 0.00 0.01 68 1019.9
20260508045603 37 0 2.0 4.0 0.00 0.00 0.01 70 1019.8
20260508045057 35 45 2.0 3.0 0.00 0.00 0.01 72 1019.8
20260508044552 33 0 3.0 4.0 0.00 0.00 0.01 71 1019.7
20260508044047 31 0 2.0 5.0 0.00 0.00 0.01 71 1019.7
20260508043542 30 0 2.0 3.0 0.00 0.00 0.01 70 1019.6
20260508043037 30 27 2.0 2.0 0.00 0.00 0.01 70 1019.6
20260508042531 30 45 0.0 0.0 0.00 0.00 0.01 69 1019.7
20260508042026 30 45 0.0 4.0 0.00 0.00 0.01 70 1019.6
20260508041521 29 45 0.0 2.0 0.00 0.00 0.01 70 1019.7
20260508041016 29 22 1.0 2.0 0.00 0.00 0.01 69 1019.6
20260508040511 29 45 1.0 2.0 0.00 0.00 0.01 69 1019.5
20260508040005 28 0 1.0 2.0 0.00 0.00 0.01 69 1019.5
20260508035500 28 45 1.0 2.0 0.00 0.00 0.01 68 1019.5
20260508034955 28 0 1.0 1.0 0.00 0.00 0.01 67 1019.5
20260508034450 28 45 0.0 2.0 0.00 0.00 0.01 67 1019.5
20260508033945 27 45 2.0 2.0 0.00 0.00 0.01 67 1019.4
20260508033439 28 0 1.0 2.0 0.00 0.00 0.01 67 1019.5
20260508032934 28 0 1.0 3.0 0.00 0.00 0.01 66 1019.4
20260508032429 28 0 0.0 0.0 0.00 0.00 0.01 66 1019.3
20260508031924 28 0 0.0 0.0 0.00 0.00 0.01 66 1019.2
20260508031419 28 0 1.0 1.0 0.00 0.00 0.01 66 1019.3
20260508030913 28 90 0.0 1.0 0.00 0.00 0.01 65 1019.3
20260508030408 28 45 1.0 2.0 0.00 0.00 0.01 65 1019.2
20260508025903 28 45 1.0 2.0 0.00 0.00 0.01 65 1019.2
20260508025357 28 45 1.0 2.0 0.00 0.00 0.01 64 1019.0
20260508024853 28 45 0.0 1.0 0.00 0.00 0.01 64 1019.0
20260508024347 29 0 2.0 2.0 0.00 0.00 0.01 64 1019.1
20260508023842 29 45 0.0 3.0 0.00 0.00 0.01 64 1019.0
20260508023337 29 0 3.0 4.0 0.00 0.00 0.01 64 1018.9
20260508022831 29 0 3.0 4.0 0.00 0.00 0.01 64 1018.9
20260508022327 29 0 3.0 4.0 0.00 0.00 0.01 64 1018.7
20260508021821 29 0 3.0 3.0 0.00 0.00 0.01 63 1018.9
20260508021316 29 0 1.0 2.0 0.00 0.00 0.01 63 1018.8
20260508020811 29 45 1.0 3.0 0.00 0.00 0.01 62 1018.8
20260508020305 29 45 1.0 1.0 0.00 0.00 0.00 63 1018.8
20260508015255 29 0 3.0 3.0 0.00 0.00 0.00 62 1018.9
20260508014750 30 0 1.0 2.0 0.00 0.00 0.00 62 1018.7
20260508014245 30 45 1.0 1.0 0.00 0.00 0.00 61 1018.8
20260508013739 30 45 1.0 2.0 0.00 0.00 0.00 61 1018.7
20260508012724 30 0 2.0 3.0 0.00 0.00 0.00 60 1018.6
20260508012219 31 0 3.0 4.0 0.00 0.00 0.00 61 1018.7
20260508011714 31 0 3.0 3.0 0.00 0.00 0.00 61 1018.7
20260508011208 31 0 1.0 2.0 0.00 0.00 0.00 60 1018.6
20260508010704 30 45 1.0 2.0 0.00 0.00 0.00 59 1018.6
20260508010158 30 18 1.0 3.0 0.00 0.00 0.00 58 1018.6
20260508005653 30 45 1.0 3.0 0.00 0.00 0.00 58 1018.6
20260508005148 31 0 2.0 3.0 0.00 0.00 0.00 57 1018.6
20260508004642 31 0 1.0 2.0 0.00 0.00 0.00 57 1018.6
20260508004138 31 0 1.0 3.0 0.00 0.00 0.00 57 1018.6
20260508003632 31 0 2.0 2.0 0.00 0.00 0.00 56 1018.5
20260508003127 32 45 0.0 2.0 0.00 0.00 0.00 56 1018.4
20260508002622 32 0 2.0 4.0 0.00 0.00 0.00 56 1018.4
20260508002116 32 0 3.0 3.0 0.00 0.00 0.00 56 1018.4
20260508001612 33 0 1.0 2.0 0.00 0.00 0.00 56 1018.4
20260508001106 33 13 1.0 3.0 0.00 0.00 0.00 55 1018.4
20260508000056 33 0 3.0 3.0 0.00 0.00 0.00 55 1018.3
20260507235550 33 0 2.0 4.0 0.00 0.00 0.00 55 1018.2
20260507235046 33 45 1.0 1.0 0.00 0.00 0.00 54 1018.2
20260507234540 33 45 1.0 1.0 0.00 0.00 0.00 53 1018.1
20260507234035 33 0 2.0 3.0 0.00 0.00 0.00 54 1018.2
20260507233530 34 0 1.0 2.0 0.00 0.00 0.00 53 1018.1
20260507233024 34 45 1.0 3.0 0.00 0.00 0.00 53 1018.2
20260507232520 34 45 1.0 2.0 0.00 0.00 0.00 54 1018.1
20260507232014 34 45 2.0 2.0 0.00 0.00 0.00 53 1018.1
20260507231509 34 0 1.0 2.0 0.00 0.00 0.00 53 1018.1
20260507231004 34 45 1.0 2.0 0.00 0.00 0.00 52 1018.1
20260507230458 34 0 2.0 3.0 0.00 0.00 0.00 52 1018.0
20260507225954 34 0 3.0 3.0 0.00 0.00 0.00 51 1018.0
20260507225448 34 0 2.0 2.0 0.00 0.00 0.00 51 1017.9
20260507224943 34 45 1.0 2.0 0.00 0.00 0.00 51 1018.0
20260507224438 34 45 1.0 2.0 0.00 0.00 0.00 51 1018.0
20260507223932 34 45 1.0 1.0 0.00 0.00 0.00 51 1017.9
20260507223428 34 45 1.0 2.0 0.00 0.00 0.00 51 1017.9
20260507222922 34 45 1.0 1.0 0.00 0.00 0.00 51 1017.9
20260507222417 34 0 2.0 2.0 0.00 0.00 0.00 51 1017.9
20260507221912 34 45 1.0 2.0 0.00 0.00 0.00 49 1017.9
20260507221406 34 45 0.0 0.0 0.00 0.00 0.00 49 1017.9
20260507220902 34 45 0.0 0.0 0.00 0.00 0.00 49 1017.8
20260507220356 34 45 0.0 0.0 0.00 0.00 0.00 48 1017.8
20260507215851 35 45 0.0 0.0 0.00 0.00 0.00 47 1017.8
20260507215346 35 45 0.0 0.0 0.00 0.00 0.00 47 1017.8
20260507214840 35 45 1.0 1.0 0.00 0.00 0.00 47 1017.7
20260507214336 35 45 0.0 1.0 0.00 0.00 0.00 45 1017.7
20260507213830 36 45 0.0 0.0 0.00 0.00 0.00 45 1017.7
20260507213325 36 90 0.0 0.0 0.00 0.00 0.00 44 1017.6
20260507212820 36 90 0.0 0.0 0.00 0.00 0.00 44 1017.6
20260507212314 37 90 0.0 0.0 0.00 0.00 0.00 44 1017.5
20260507211810 37 90 0.0 0.0 0.00 0.00 0.00 44 1017.5
20260507211304 37 90 0.0 0.0 0.00 0.00 0.00 42 1017.4
20260507210759 37 90 0.0 0.0 0.00 0.00 0.00 41 1017.4
20260507210254 37 45 0.0 0.0 0.00 0.00 0.00 40 1017.3
20260507205748 38 45 0.0 0.0 0.00 0.00 0.00 39 1017.3
20260507205244 38 0 0.0 0.0 0.00 0.00 0.00 38 1017.3